Simultaneous Nadir Overpasses (SNOs) Predictions

Prediction of SNOs between GOES-15 and METOP-B Satellite Orbit:

Table of predicted SNOs for the next 14.0 days since TLE Epoch: 8/3/2018
Index Date Time (GOES-15) GOES-15 Lat,Lon METOP-B Lat,Lon Distance(km) Time Diff (sec)
1 08/05/2018 06:31:50 0.02,-135.37 -0.01,-135.56 22.01 80
2 08/07/2018 18:27:19 -0.01,-135.36 -0.04,-135.12 27.62 80
3 08/10/2018 06:25:38 0.00,-135.25 0.13,-134.72 61.17 80
4 08/11/2018 18:47:07 0.04,-135.26 0.92,-139.27 456.59 80
5 08/12/2018 18:23:47 0.00,-135.23 -0.19,-134.27 108.88 80
6 08/14/2018 06:45:25 -0.05,-135.14 -0.89,-138.86 423.85 80
7 08/15/2018 06:22:05 -0.01,-135.11 0.28,-133.88 141.55 80
8 08/16/2018 18:43:35 0.06,-135.12 0.77,-138.43 376.60 80
9 08/17/2018 18:20:14 0.03,-135.09 -0.34,-133.43 188.53 80




NCC Satellite Simultaneous Nadir Overpasses (SNOs) Prediction Service
